Rockwall, TX

8:42 PM CST on January 22, 2018 (GMT -0600)
Rockwall

Weather History for KF46 - September, 2013

Change the Weather History Date:

Monday, September 30, 2013

  Actual Average (KDFW) Record (KDFW)
Temperature  
Mean Temperature 72 °F -  
Max Temperature 85 °F 82 °F 98 °F (1977)
Min Temperature 59 °F 60 °F 43 °F (1984)
Cooling Degree Days 7    
Growing Degree Days 22 (Base 50)    
Moisture  
Dew Point 58 °F    
Average Humidity 61    
Maximum Humidity 88    
Minimum Humidity 36    
Precipitation  
Precipitation 0.00 in - - ()
Sea Level Pressure  
Sea Level Pressure 29.87 in    
Wind  
Wind Speed 3 mph (SE)    
Max Wind Speed 9 mph    
Max Gust Speed -    
Visibility 10 miles    
Events      
Averages and records for this station are not official NWS values.
T = Trace of Precipitation, MM = Missing Value Source: NWS Daily Summary

Daily Weather History Graph

Daily Weather History Graph

Search for Another Location

Airport or City:

Trip Planner

Search our weather history database for the weather conditions in past years. The results will help you decide how hot, cold, wet, or windy it might be!

Date:

Astronomy

Sep. 30, 2013 Rise Set
Actual Time 7:19 AM CDT 7:11 PM CDT
Civil Twilight 6:54 AM CDT 7:35 PM CDT
Nautical Twilight 6:26 AM CDT 8:04 PM CDT
Astronomical Twilight 5:57 AM CDT 8:33 PM CDT
Moon 3:09 AM CDT (9/30) 4:32 PM CDT (9/30)
Length of Visible Light 12h 41m
Length of Day
11h 51m
Waning Crescent, 19% of the Moon is Illuminated
Sep 30
Waning Crescent
Oct 4
New
Oct 11
First Quarter
Oct 18
Full
Oct 26
Last Quarter

Hourly Weather History & Observations

Time (CDT) Temp. Heat Index Dew Point Humidity Pressure Visibility Wind Dir Wind Speed Gust Speed Precip Events Conditions
12:15 AM 66.4 °F - 55.8 °F 69% 29.92 in 10.0 mi West 9.2 mph - N/A   Scattered Clouds
12:35 AM 66.9 °F - 55.2 °F 66% 29.92 in 10.0 mi West 9.2 mph - N/A   Mostly Cloudy
12:55 AM 66.6 °F - 54.0 °F 64% 29.92 in 10.0 mi Calm Calm - N/A   Clear
1:15 AM 66.2 °F - 53.8 °F 64% 29.91 in 10.0 mi Calm Calm - N/A   Clear
1:35 AM 66.7 °F - 54.9 °F 66% 29.91 in 10.0 mi Calm Calm - N/A   Scattered Clouds
1:55 AM 67.1 °F - 55.0 °F 65% 29.91 in 10.0 mi WNW 6.9 mph - N/A   Scattered Clouds
2:15 AM 67.1 °F - 55.2 °F 66% 29.91 in 10.0 mi Calm Calm - N/A   Scattered Clouds
2:35 AM 65.3 °F - 58.8 °F 80% 29.91 in 10.0 mi North 6.9 mph - N/A   Mostly Cloudy
2:55 AM 65.5 °F - 60.6 °F 84% 29.90 in 10.0 mi WNW 4.6 mph - N/A   Overcast
3:15 AM 66.4 °F - 58.5 °F 76% 29.90 in 10.0 mi Calm Calm - N/A   Overcast
3:35 AM 66.0 °F - 57.9 °F 75% 29.89 in 10.0 mi Calm Calm - N/A   Overcast
3:55 AM 66.6 °F - 56.5 °F 70% 29.89 in 10.0 mi WNW 3.5 mph - N/A   Mostly Cloudy
4:15 AM 65.3 °F - 58.8 °F 80% 29.88 in 10.0 mi Calm Calm - N/A   Clear
4:35 AM 65.1 °F - 54.7 °F 69% 29.88 in 10.0 mi Calm Calm - N/A   Clear
4:55 AM 65.8 °F - 54.3 °F 66% 29.89 in 10.0 mi Calm Calm - N/A   Clear
5:15 AM 62.8 °F - 56.5 °F 80% 29.89 in 10.0 mi Calm Calm - N/A   Clear
5:35 AM 63.1 °F - 55.9 °F 77% 29.89 in 10.0 mi Calm Calm - N/A   Clear
5:55 AM 61.7 °F - 57.7 °F 87% 29.89 in 10.0 mi Calm Calm - N/A   Scattered Clouds
6:15 AM 59.9 °F - 56.5 °F 88% 29.89 in 10.0 mi Calm Calm - N/A   Scattered Clouds
6:35 AM 61.9 °F - 56.7 °F 83% 29.89 in 10.0 mi Calm Calm - N/A   Clear
6:55 AM 61.5 °F - 56.1 °F 82% 29.89 in 10.0 mi Calm Calm - N/A   Clear
7:15 AM 60.8 °F - 54.5 °F 80% 29.89 in 10.0 mi Calm Calm - N/A   Clear
7:35 AM 60.8 °F - 53.8 °F 78% 29.89 in 10.0 mi Calm Calm - N/A   Clear
7:55 AM 60.1 °F - 55.9 °F 86% 29.90 in 10.0 mi Calm Calm - N/A   Clear
8:15 AM 61.7 °F - 58.1 °F 88% 29.90 in 2.5 mi Calm Calm - N/A   Clear
8:35 AM 64.6 °F - 59.4 °F 83% 29.90 in 10.0 mi Calm Calm - N/A   Clear
8:55 AM 66.7 °F - 59.7 °F 78% 29.90 in 10.0 mi Calm Calm - N/A   Clear
9:15 AM 69.1 °F - 59.2 °F 71% 29.90 in 10.0 mi Calm Calm - N/A   Clear
9:55 AM 74.3 °F - 58.6 °F 58% 29.90 in 10.0 mi Calm Calm - N/A   Clear
10:15 AM 75.2 °F - 54.7 °F 49% 29.90 in 10.0 mi Calm Calm - N/A   Clear
10:35 AM 77.0 °F - 54.3 °F 45% 29.90 in 10.0 mi Calm Calm - N/A   Clear
10:55 AM 78.4 °F - 52.0 °F 40% 29.90 in 10.0 mi Calm Calm - N/A   Clear
11:15 AM 79.2 °F - 54.0 °F 42% 29.91 in 10.0 mi Calm Calm - N/A   Clear
11:35 AM 79.5 °F - 53.2 °F 40% 29.91 in 10.0 mi West 4.6 mph - N/A   Clear
11:55 AM 80.1 °F - 52.2 °F 38% 29.90 in 10.0 mi SSW 6.9 mph - N/A   Clear
12:15 PM 80.6 °F 80.3 °F 53.8 °F 39% 29.90 in 10.0 mi Calm Calm - N/A   Clear
12:35 PM 80.6 °F 80.3 °F 53.2 °F 39% 29.90 in 10.0 mi SSW 3.5 mph - N/A   Clear
12:55 PM 81.1 °F - 52.3 °F 37% 29.89 in 10.0 mi Calm Calm - N/A   Clear
1:15 PM 82.0 °F - 52.9 °F 36% 29.88 in 10.0 mi Calm Calm - N/A   Clear
1:35 PM 82.4 °F - 52.9 °F 36% 29.87 in 10.0 mi Calm Calm - N/A   Clear
1:55 PM 82.8 °F 81.7 °F 54.3 °F 37% 29.86 in 10.0 mi SSW 5.8 mph - N/A   Clear
2:15 PM 83.8 °F 82.8 °F 55.4 °F 38% 29.85 in 10.0 mi SW 5.8 mph - N/A   Clear
2:35 PM 83.8 °F 82.7 °F 55.0 °F 37% 29.84 in 10.0 mi WSW 5.8 mph - N/A   Clear
2:55 PM 84.0 °F 82.7 °F 54.5 °F 36% 29.84 in 10.0 mi South 3.5 mph - N/A   Clear
3:15 PM 85.1 °F 83.8 °F 55.6 °F 36% 29.83 in 10.0 mi SSE 4.6 mph - N/A   Clear
3:35 PM 85.1 °F 83.9 °F 55.9 °F 37% 29.83 in 10.0 mi East 3.5 mph - N/A   Clear
3:55 PM 85.3 °F 84.1 °F 56.1 °F 37% 29.82 in 10.0 mi ESE 9.2 mph - N/A   Clear
4:15 PM 85.3 °F 84.3 °F 57.0 °F 38% 29.82 in 10.0 mi East 4.6 mph - N/A   Clear
4:35 PM 85.1 °F 84.1 °F 56.8 °F 38% 29.82 in 10.0 mi East 8.1 mph - N/A   Clear
4:55 PM 85.1 °F 84.3 °F 57.4 °F 39% 29.82 in 10.0 mi East 6.9 mph - N/A   Clear
5:15 PM 84.6 °F 84.2 °F 59.0 °F 42% 29.82 in 10.0 mi SE 5.8 mph - N/A   Clear
5:35 PM 84.0 °F 83.5 °F 58.1 °F 41% 29.82 in 10.0 mi SE 9.2 mph - N/A   Clear
5:55 PM 83.8 °F 83.8 °F 60.1 °F 44% 29.82 in 10.0 mi SE 4.6 mph - N/A   Clear
6:15 PM 82.8 °F 83.3 °F 61.2 °F 48% 29.82 in 10.0 mi SE 3.5 mph - N/A   Clear
6:35 PM 81.9 °F 82.9 °F 62.6 °F 52% 29.82 in 10.0 mi SE 5.8 mph - N/A   Clear
6:55 PM 80.6 °F 82.0 °F 63.5 °F 56% 29.83 in 10.0 mi ESE 3.5 mph - N/A   Clear
7:15 PM 79.2 °F - 63.7 °F 59% 29.83 in 10.0 mi Calm Calm - N/A   Clear
7:35 PM 78.3 °F - 63.5 °F 60% 29.83 in 10.0 mi SE 4.6 mph - N/A   Clear
7:55 PM 77.7 °F - 63.5 °F 61% 29.84 in 10.0 mi SE 3.5 mph - N/A   Clear
8:15 PM 77.0 °F - 64.0 °F 64% 29.84 in 10.0 mi ESE 4.6 mph - N/A   Clear
8:35 PM 76.5 °F - 64.8 °F 67% 29.84 in 10.0 mi ESE 4.6 mph - N/A   Clear
8:55 PM 76.1 °F - 65.3 °F 69% 29.85 in 10.0 mi ESE 3.5 mph - N/A   Clear
9:15 PM 75.4 °F - 65.5 °F 71% 29.85 in 10.0 mi ESE 3.5 mph - N/A   Clear
9:35 PM 74.8 °F - 65.8 °F 73% 29.85 in 10.0 mi ESE 4.6 mph - N/A   Clear
9:55 PM 74.7 °F - 66.2 °F 75% 29.86 in 10.0 mi ESE 4.6 mph - N/A   Clear
10:15 PM 73.8 °F - 66.2 °F 77% 29.86 in 10.0 mi East 5.8 mph - N/A   Clear
10:35 PM 73.0 °F - 66.2 °F 79% 29.86 in 10.0 mi East 5.8 mph - N/A   Clear
10:55 PM 72.9 °F - 66.6 °F 81% 29.86 in 10.0 mi East 4.6 mph - N/A   Clear
11:15 PM 72.5 °F - 66.9 °F 83% 29.87 in 10.0 mi East 4.6 mph - N/A   Clear
11:35 PM 72.0 °F - 67.1 °F 85% 29.86 in 10.0 mi East 4.6 mph - N/A   Clear
11:55 PM 72.0 °F - 67.5 °F 86% 29.86 in 10.0 mi East 5.8 mph - N/A   Scattered Clouds